Nassau, Bahamas

3:29 PM EST on December 02, 2016 (GMT -0500)
Nassau

Weather History for 78073 - December, 2013

Change the Weather History Date:

Wednesday, December 18, 2013

  Actual Average Record
Temperature  
Mean Temperature 76 °F -  
Max Temperature 80 °F - - ()
Min Temperature 73 °F - - ()
Cooling Degree Days 12    
Growing Degree Days 26 (Base 50)    
Moisture  
Dew Point 66 °F    
Average Humidity 73    
Maximum Humidity 89    
Minimum Humidity 36    
Precipitation  
Precipitation 0.00 in - - ()
Sea Level Pressure  
Sea Level Pressure 30.14 in    
Wind  
Wind Speed 7 mph ()    
Max Wind Speed 13 mph    
Max Gust Speed -    
Visibility 6.9 miles    
Events      
T = Trace of Precipitation, MM = Missing Value Source: Averaged Metar Reports

Daily Weather History Graph

Daily Weather History Graph

Search for Another Location

Airport or City:

Trip Planner

Search our weather history database for the weather conditions in past years. The results will help you decide how hot, cold, wet, or windy it might be!

Date:

Astronomy

Dec. 18, 2013 Rise Set
Actual Time 6:49 AM EST 5:24 PM EST
Civil Twilight 6:24 AM EST 5:49 PM EST
Nautical Twilight 5:55 AM EST 6:17 PM EST
Astronomical Twilight 5:27 AM EST 6:45 PM EST
Moon 6:45 PM EST (12/18) 7:34 AM EST (12/18)
Length of Visible Light 11h 25m
Length of Day
10h 35m
Full, 98% of the Moon is Illuminated
Dec 18
Full
Dec 25
Last Quarter
Jan 1
New
Jan 7
First Quarter
Jan 15
Full

Hourly Weather History & Observations

Time (EST) Temp. Dew Point Humidity Pressure Visibility Wind Dir Wind Speed Gust Speed Precip Events Conditions
12:00 AM 75.2 °F 68.0 °F 78% 30.12 in 6.2 mi NNE 6.9 mph - N/A   Scattered Clouds
1:00 AM 75 °F 71 °F 82% 30.11 in 9 mi NE 4.6 mph - -   Partly Cloudy
1:00 AM 75.2 °F 69.8 °F 83% 30.11 in 6.2 mi NE 4.6 mph - N/A   Scattered Clouds
2:00 AM 75.2 °F 68.0 °F 78% 30.10 in 6.2 mi ENE 4.6 mph - N/A   Scattered Clouds
3:00 AM 75.2 °F 68.0 °F 78% 30.09 in 6.2 mi NNE 3.5 mph - N/A   Scattered Clouds
4:00 AM 76 °F 71 °F 79% 30.09 in 9 mi NNE 6.9 mph - -   Partly Cloudy
4:00 AM 75.2 °F 71.6 °F 89% 30.09 in 6.2 mi NNE 6.9 mph - N/A   Scattered Clouds
5:00 AM 75.2 °F 68.0 °F 78% 30.09 in 6.2 mi NNE 8.1 mph - N/A   Mostly Cloudy
6:00 AM 75.2 °F 68.0 °F 78% 30.11 in 6.2 mi NNE 9.2 mph - N/A   Mostly Cloudy
7:00 AM 75 °F 72 °F 86% 30.14 in 9 mi NNE 9.2 mph - -   Mostly Cloudy
7:00 AM 75.2 °F 69.8 °F 83% 30.13 in 6.2 mi NNE 9.2 mph - N/A   Scattered Clouds
8:00 AM 75.2 °F 68.0 °F 78% 30.16 in 6.2 mi NNE 10.4 mph - N/A   Scattered Clouds
9:00 AM 75.2 °F 66.2 °F 73% 30.18 in 6.2 mi NNE 11.5 mph - N/A   Scattered Clouds
10:00 AM 78 °F 70 °F 71% 30.19 in 9 mi NNE 12.7 mph - -   Mostly Cloudy
10:00 AM 78.8 °F 69.8 °F 74% 30.19 in 6.2 mi NNE 12.7 mph - N/A   Scattered Clouds
11:00 AM 77.0 °F 66.2 °F 69% 30.19 in 6.2 mi NNE 12.7 mph - N/A   Scattered Clouds
12:00 PM 77.0 °F 66.2 °F 69% 30.17 in 6.2 mi NE 12.7 mph - N/A   Scattered Clouds
2:00 PM 77.0 °F 66.2 °F 69% 30.13 in 6.2 mi NNE 11.5 mph - N/A   Scattered Clouds
3:00 PM 75.2 °F 64.4 °F 69% 30.12 in 6.2 mi NNE 11.5 mph - N/A   Mostly Cloudy
4:00 PM 76 °F 67 °F 66% 30.13 in 9 mi East 11.5 mph - -   Mostly Cloudy
4:00 PM 77.0 °F 48.2 °F 36% 30.13 in 6.2 mi NNE 11.5 mph - N/A   Mostly Cloudy
5:00 PM 75.2 °F 62.6 °F 65% 30.13 in 6.2 mi NNE 10.4 mph - N/A   Mostly Cloudy
6:00 PM 73.4 °F 62.6 °F 69% 30.14 in 6.2 mi NNE 8.1 mph - N/A   Scattered Clouds
7:00 PM 74 °F 66 °F 68% 30.16 in 9 mi ENE 9.2 mph - -   Mostly Cloudy
7:00 PM 73.4 °F 66.2 °F 78% 30.16 in 6.2 mi ENE 9.2 mph - N/A   Mostly Cloudy
8:00 PM 73.4 °F 62.6 °F 69% 30.18 in 6.2 mi NNE 9.2 mph - N/A   Scattered Clouds
10:00 PM 73 °F 65 °F 69% 30.19 in 9 mi NE 9.2 mph - -   Scattered Clouds
10:00 PM 73.4 °F 64.4 °F 73% 30.19 in 6.2 mi NE 9.2 mph - N/A   Partly Cloudy
11:00 PM 73.4 °F 60.8 °F 65% 30.19 in 6.2 mi NE 8.1 mph - N/A   Partly Cloudy